Temperature
14 14 14 14 14 13 13 13 13 13 13 13 13 13 13 13 13 13 13 12 12 12 12 12 12 12 12 12 12 12 12 12 12 12 12 12 12 12 12 12 12 12 12
14 14 14 13 13 13 13 13 13 13 13 13 13 13 13 13 13 13 12 12 12 12 12 12 12 12 12 12 12 12 12 12 12 11 11 11 11 11 11 11 11 11 11
14 14 13 13 13 13 13 13 13 13 13 13 13 13 13 13 12 12 12 12 12 12 12 12 12 12 12 12 12 12 12 11 11 11 11 11 11 11 11 11 11 11 11
14 14 13 13 13 13 13 13 13 13 12 12 13 13 13 12 12 12 12 12 12 12 12 12 12 12 12 12 12 12 11 11 11 11 11 11 11 11 11 11 11 11 11
14 14 14 13 13 13 13 13 13 13 13 12 12 12 12 12 12 12 12 12 12 12 12 12 12 12 12 12 11 11 11 11 11 11 11 11 11 10 10 10 10 10 11
14 14 13 13 13 13 13 13 13 13 13 12 12 13 12 12 12 12 12 12 12 12 12 12 12 12 12 12 11 11 11 11 11 11 10 10 10 10 10 10 10 10 10
14 14 14 13 13 13 13 13 13 13 13 12 12 12 12 12 12 12 12 12 12 12 12 12 11 11 11 11 11 11 11 11 11 10 10 10 10 10 10 10 10 10 10
14 14 14 14 13 13 13 13 13 13 13 13 12 12 12 12 12 12 12 12 12 12 12 11 11 11 11 11 11 11 11 11 10 10 10 10 10 10 10 9 9 9 10
14 14 14 14 14 13 13 13 13 13 13 13 13 12 12 12 12 12 12 12 12 12 11 11 11 11 11 11 11 11 11 11 10 10 10 10 10 10 9 9 9 9 9
14 14 14 14 14 13 13 13 13 13 13 13 13 13 12 12 12 12 12 12 12 12 11 11 11 11 11 11 11 10 10 10 10 10 10 10 10 10 9 9 9 9 9
14 14 14 14 13 13 13 13 13 13 13 13 13 13 12 12 12 12 12 12 12 11 11 11 11 11 11 11 10 10 10 10 10 10 10 10 10 9 9 9 9 9 9
14 14 14 14 13 13 13 13 13 13 13 13 13 13 12 12 12 12 12 12 11 11 11 11 11 11 11 10 10 10 10 10 10 10 10 10 9 9 9 9 9 9 9
14 14 14 13 13 13 13 13 13 13 13 13 13 13 13 12 12 12 12 11 11 11 11 11 11 11 10 10 10 10 10 10 9 9 9 9 9 9 9 9 9 9 9
14 13 13 13 13 13 13 13 13 13 13 13 13 13 13 12 12 12 12 11 11 11 11 11 11 10 10 10 10 10 10 9 9 9 9 9 9 9 9 9 8 8 8
13 13 13 13 13 13 13 13 13 13 13 13 13 13 12 12 12 12 12 11 11 11 11 11 10 10 10 10 10 10 9 9 9 9 9 9 9 9 8 8 8 8 8
13 13 13 13 13 13 13 13 13 12 13 13 13 12 12 12 12 12 11 11 11 11 10 10 10 10 10 10 9 9 9 9 9 9 9 9 8 8 8 8 8 8 8
13 13 13 13 13 13 13 12 12 12 13 13 12 12 12 12 12 12 11 11 11 11 10 10 10 10 10 9 9 9 9 9 9 9 8 8 8 8 8 8 7 7 7
13 13 13 13 13 12 12 12 12 12 12 12 12 12 12 12 12 12 11 11 11 10 10 10 10 9 9 9 9 9 9 9 8 8 8 8 8 8 7 7 7 7 7
12 12 13 13 12 12 12 12 12 12 12 12 12 12 12 12 12 11 11 11 11 10 10 10 10 9 9 9 9 9 9 8 8 8 8 8 8 7 7 7 7 7 6
12 12 12 12 12 12 12 12 12 12 12 12 12 12 12 12 12 11 11 11 11 10 10 10 10 9 9 9 9 9 8 8 8 8 8 7 7 7 7 7 7 7 6
12 12 12 12 12 12 12 12 12 12 12 12 12 12 12 12 11 11 11 11 10 10 10 10 9 9 9 9 9 9 8 8 8 8 8 7 7 7 7 7 7 6 6
12 12 12 12 12 12 12 12 12 12 11 12 11 11 11 11 11 11 11 10 10 10 10 9 9 9 9 9 9 8 8 8 8 8 7 7 7 7 7 6 6 6 6
11 11 11 12 12 12 12 12 12 11 11 11 11 11 11 11 11 11 10 10 10 10 10 9 9 9 9 8 8 8 8 8 8 7 7 7 7 7 6 6 6 6 6
11 11 11 11 11 11 11 11 11 11 11 11 11 11 11 11 11 10 10 10 10 10 10 9 9 9 9 8 8 8 8 8 7 7 7 7 7 7 6 6 6 6 6
11 11 11 11 11 11 11 11 11 11 11 11 11 11 11 10 10 10 10 10 10 10 9 9 9 8 8 8 8 8 8 7 7 7 7 7 7 7 6 6 6 6 6
10 10 11 11 11 11 11 11 11 11 11 11 11 11 10 10 10 10 10 10 10 9 9 9 9 8 8 8 8 8 8 7 7 7 7 7 7 6 6 6 6 6 6
Wind_Speed
2 2 2 2 2 2 2 2 2 2 2 2 2 3 3 3 2 2 2 2 2 2 2 2 2 2 1 1 1 2 2 3 4 3 2 2 2 3 3 4 5 6 7
3 2 2 2 2 2 2 3 2 2 2 3 3 2 3 3 2 3 3 2 3 3 2 2 2 2 1 1 1 2 2 3 4 3 2 2 2 3 3 3 4 5 6
3 3 3 2 2 2 3 2 2 3 2 2 2 3 3 3 3 3 3 3 3 3 3 3 3 2 2 1 1 2 1 1 2 3 2 2 2 1 1 2 2 2 4
3 3 3 3 4 4 3 3 3 3 3 3 3 3 3 3 3 3 3 2 3 3 3 3 3 3 3 3 2 2 1 1 1 1 1 1 1 2 0 1 2 2 3
3 3 4 4 4 4 4 4 3 3 3 3 3 2 2 3 3 3 3 3 3 3 2 2 3 3 4 3 2 2 2 2 1 1 1 1 1 1 2 2 3 3 3
4 4 4 3 3 3 4 4 3 3 3 3 3 3 2 3 3 4 4 3 3 3 3 3 3 2 4 4 4 4 4 4 3 2 2 3 3 3 2 2 2 1 3
4 4 4 4 4 4 4 4 4 4 3 3 3 3 3 4 4 4 5 4 3 3 3 3 3 3 3 2 3 3 3 4 6 5 4 5 4 4 3 2 2 3 4
4 4 4 4 4 4 4 4 5 4 4 4 4 4 3 4 4 4 4 3 2 3 4 4 3 3 3 3 2 2 3 4 5 5 5 5 5 5 4 4 4 3 3
4 4 4 4 4 4 5 5 4 3 4 4 3 4 4 4 5 4 3 2 2 3 4 4 4 4 5 4 2 2 3 3 4 5 6 5 6 6 5 2 1 1 2
5 4 4 4 4 5 6 5 4 3 4 3 3 4 4 4 5 5 4 2 2 3 3 3 5 5 5 4 3 3 4 5 3 2 2 3 3 4 5 5 5 3 3
4 3 2 3 4 5 4 4 3 3 2 2 3 3 4 4 4 5 5 3 4 3 3 3 4 5 5 5 4 4 6 4 2 1 2 3 3 3 3 3 4 5 4
3 2 2 2 3 3 3 3 2 2 2 2 2 3 3 3 3 3 4 5 5 3 3 3 3 4 4 4 3 4 5 3 1 1 1 3 3 3 3 3 4 5 6
2 1 2 2 2 2 2 3 2 2 2 3 3 3 3 2 2 4 3 3 4 3 3 4 4 3 3 2 3 4 3 1 1 1 3 4 4 4 3 2 3 2 3
2 2 2 2 2 2 1 2 2 3 3 3 3 4 3 2 3 3 2 2 2 2 2 2 2 2 1 2 2 2 2 2 2 3 3 3 2 2 2 2 2 2 2
2 2 2 2 2 2 2 2 3 4 5 5 5 4 4 4 6 6 4 2 2 2 1 1 1 1 1 1 1 2 2 1 2 3 3 3 3 2 3 2 1 1 1
2 2 3 3 3 2 2 2 3 3 4 6 7 6 5 6 6 6 5 5 5 4 3 1 1 2 2 2 2 2 2 2 2 2 2 2 2 2 3 2 1 1 2
3 3 3 3 3 3 2 3 3 4 3 3 5 6 6 6 6 6 4 3 3 5 3 2 2 2 2 2 2 2 2 2 2 1 2 2 2 2 2 2 2 2 2
3 4 4 3 3 3 4 3 3 3 3 3 4 5 6 6 6 5 3 3 1 2 2 3 3 3 3 2 2 2 2 2 1 1 1 2 2 2 2 3 2 3 3
2 2 3 3 3 4 3 3 3 3 3 3 2 2 3 4 4 3 4 3 3 3 3 3 3 3 2 2 2 2 2 2 2 1 1 2 2 2 2 3 3 3 2
2 4 3 2 2 2 2 2 2 2 2 3 3 3 1 1 1 1 2 3 3 3 3 3 3 3 3 3 2 2 2 1 1 1 2 2 2 2 3 3 3 2 3
2 3 4 2 2 3 3 3 3 3 3 3 3 3 4 3 3 3 3 3 4 4 3 3 3 3 3 2 2 2 2 2 1 1 2 2 2 2 2 3 3 3 3
2 2 2 2 2 3 3 3 3 3 3 3 2 2 3 2 2 3 3 4 4 4 4 3 2 2 2 2 2 2 2 2 2 2 2 2 2 3 3 3 3 3 3
2 2 2 2 2 2 2 2 2 2 2 2 2 1 1 1 2 2 3 3 3 2 2 2 2 2 1 1 2 2 2 3 3 3 2 3 3 3 3 3 3 3 3
2 2 2 2 2 1 1 1 1 1 1 1 1 1 2 2 2 2 2 2 2 2 2 2 2 2 2 1 1 2 3 3 3 3 4 4 3 3 3 3 3 4 3
2 3 2 2 2 2 2 1 1 1 1 2 2 1 2 2 2 2 2 2 2 2 2 2 2 2 2 3 2 2 2 3 3 2 3 3 3 4 3 3 3 3 3
2 3 2 2 1 1 2 2 2 2 2 2 2 2 3 3 3 3 2 2 2 1 1 1 2 2 2 1 1 1 2 2 2 3 2 2 2 3 2 2 3 3 3
Wind_Direction
190 193 197 212 212 201 206 215 212 220 224 224 222 211 213 211 206 193 206 193 194 228 225 198 222 219 215 234 220 204 202 185 216 261 262 262 246 252 260 246 237 230 238
199 185 191 207 210 213 224 225 210 211 222 225 221 212 213 205 197 192 205 204 201 219 228 201 226 214 205 229 228 235 226 206 195 233 262 262 254 244 242 240 239 239 239
180 179 190 200 206 218 222 221 211 213 228 238 222 213 214 204 196 202 205 212 210 214 209 199 210 184 206 235 223 236 245 232 177 191 239 255 269 264 276 267 261 257 253
172 184 199 211 212 214 221 222 218 212 214 225 223 216 209 202 201 212 207 208 212 220 212 204 203 190 202 215 222 230 214 203 176 174 226 272 274 284 281 269 288 271 261
184 200 217 219 219 221 220 220 223 222 223 224 216 223 225 214 215 213 210 210 207 216 232 229 218 207 202 201 202 210 188 186 185 184 230 277 289 286 265 250 262 276 270
190 213 219 220 223 227 225 223 222 232 238 227 215 212 227 240 232 219 206 207 202 203 228 253 251 239 238 230 217 204 186 182 190 191 214 224 249 245 248 246 249 284 288
200 215 216 215 222 231 231 225 225 228 228 224 221 207 222 242 230 220 209 187 189 199 208 230 256 254 241 239 248 252 243 224 201 191 204 226 231 232 226 248 240 224 244
202 219 218 215 222 234 229 227 230 226 215 215 220 216 213 238 237 232 213 184 188 206 215 219 229 249 247 220 222 252 263 259 237 215 212 227 228 225 212 221 229 243 267
207 220 222 216 221 231 232 238 233 221 225 223 220 213 216 246 241 232 201 168 206 234 233 228 223 235 245 219 198 237 269 278 268 233 221 232 238 235 218 198 224 219 284
216 224 221 214 216 225 232 234 229 219 226 227 228 222 216 233 243 231 201 181 213 248 261 259 245 242 250 227 204 213 245 264 276 301 295 291 273 264 238 208 205 207 235
212 206 204 214 224 226 224 225 222 220 219 225 229 239 230 232 241 229 202 189 205 230 251 265 263 257 250 240 218 213 232 240 241 255 288 302 302 287 266 230 208 202 214
193 192 214 229 237 229 216 229 220 206 210 232 238 255 255 246 233 235 218 211 204 206 241 253 257 257 243 240 233 237 243 248 242 269 289 292 292 287 277 264 236 219 221
171 210 243 247 255 245 216 226 224 214 215 229 227 237 249 251 250 244 233 224 215 209 240 255 268 266 245 248 257 259 257 223 201 233 256 266 264 266 283 301 301 278 272
170 222 244 239 262 285 246 221 214 222 225 226 224 231 236 247 251 250 241 236 232 230 268 303 314 306 288 265 272 274 251 218 205 228 250 268 285 296 287 279 282 293 304
189 211 232 232 236 260 264 240 226 228 220 215 222 215 208 233 240 218 202 205 209 216 185 62 38 348 329 307 287 277 271 259 244 248 251 269 278 287 284 278 267 269 250
208 231 235 234 240 238 238 286 285 252 249 229 224 212 220 226 224 214 215 212 207 176 135 156 227 235 239 254 268 281 283 269 256 249 250 251 261 270 282 290 268 244 253
216 237 244 236 238 234 225 226 271 305 305 276 245 228 222 227 223 224 224 206 194 153 144 202 220 228 235 242 251 251 267 270 252 238 245 248 245 252 259 270 272 263 264
224 236 236 238 238 232 229 227 227 238 271 286 274 245 230 230 233 237 212 130 107 145 194 218 230 233 233 235 246 253 266 284 275 256 257 259 247 242 252 262 263 260 263
240 249 245 242 239 233 233 230 233 238 243 249 275 292 250 241 247 235 164 158 198 220 223 229 231 227 230 238 244 246 248 257 261 252 257 268 260 249 262 267 269 270 260
264 267 257 247 245 241 241 238 235 234 240 237 242 254 245 126 149 195 185 197 208 225 226 227 231 225 225 234 236 232 235 252 265 259 254 257 258 247 257 265 264 269 263
289 293 276 274 259 248 238 229 223 220 227 232 238 233 195 189 208 208 198 201 207 216 224 228 236 237 233 230 216 204 206 237 248 250 255 256 258 263 263 259 260 261 263
275 274 271 265 259 247 236 225 218 218 222 228 254 262 217 198 199 200 205 211 217 218 216 211 221 231 224 212 199 190 198 226 246 253 262 258 255 259 264 266 270 271 266
277 284 286 275 267 261 236 226 222 218 223 231 238 248 232 217 214 210 217 220 217 224 217 194 198 219 220 195 191 197 210 229 234 230 236 247 252 257 257 259 265 272 265
290 285 277 272 269 259 243 241 241 234 233 242 240 230 210 196 194 200 205 207 208 212 202 187 196 199 201 191 194 214 223 233 234 230 227 236 247 258 260 262 265 261 259
304 304 291 270 258 256 252 250 239 230 236 236 224 211 208 200 200 203 200 197 194 195 204 184 178 185 197 198 211 245 247 250 260 256 245 240 244 248 255 262 271 272 265
303 313 309 294 274 249 223 224 230 223 223 227 215 212 212 208 209 201 201 200 200 205 221 179 158 156 163 187 226 269 276 275 281 275 256 246 255 254 258 264 269 268 268
Height
1488 1488 1487 1487 1487 1487 1487 1487 1487 1487 1487 1487 1487 1487 1486 1486 1486 1485 1485 1485 1485 1485 1485 1485 1485 1485 1485 1485 1485 1485 1484 1484 1483 1483 1484 1484 1484 1484 1484 1484 1484 1484 1484
1486 1486 1486 1486 1486 1485 1485 1485 1485 1485 1485 1485 1485 1485 1484 1484 1484 1483 1483 1483 1483 1483 1483 1483 1483 1483 1482 1482 1482 1481 1481 1480 1480 1479 1480 1480 1480 1480 1480 1480 1480 1480 1481
1485 1485 1485 1484 1484 1484 1483 1483 1483 1483 1483 1484 1484 1483 1483 1482 1482 1482 1482 1481 1481 1481 1481 1481 1481 1480 1480 1479 1479 1478 1478 1477 1477 1476 1476 1476 1477 1477 1477 1477 1477 1477 1477
1484 1484 1483 1483 1483 1482 1482 1482 1481 1481 1481 1482 1482 1482 1481 1481 1481 1480 1480 1480 1479 1479 1479 1478 1478 1478 1477 1477 1477 1476 1475 1475 1474 1473 1473 1473 1473 1473 1473 1473 1473 1473 1473
1482 1482 1482 1482 1481 1481 1481 1480 1480 1480 1480 1480 1480 1480 1479 1479 1479 1478 1478 1478 1477 1477 1477 1476 1476 1476 1475 1475 1474 1474 1473 1472 1471 1471 1470 1470 1470 1470 1470 1470 1469 1469 1469
1481 1481 1481 1481 1480 1480 1479 1478 1478 1478 1479 1479 1478 1478 1477 1477 1477 1476 1476 1476 1475 1475 1474 1474 1474 1473 1473 1472 1472 1471 1471 1470 1469 1468 1468 1467 1467 1467 1467 1467 1466 1465 1465
1479 1479 1479 1479 1479 1478 1478 1477 1477 1477 1477 1476 1476 1475 1475 1474 1474 1474 1474 1473 1473 1472 1472 1471 1471 1471 1470 1470 1469 1469 1468 1468 1467 1467 1465 1464 1464 1464 1464 1463 1463 1462 1461
1477 1477 1477 1477 1477 1477 1476 1476 1475 1475 1475 1474 1474 1473 1472 1472 1472 1471 1471 1471 1470 1470 1469 1469 1468 1468 1468 1467 1467 1466 1466 1465 1465 1464 1463 1462 1462 1461 1461 1460 1459 1458 1458
1475 1475 1475 1475 1475 1475 1474 1474 1474 1473 1472 1472 1472 1471 1470 1469 1469 1468 1468 1468 1467 1467 1467 1466 1466 1465 1465 1465 1464 1463 1462 1462 1462 1461 1461 1460 1459 1458 1458 1457 1456 1455 1453
1473 1473 1473 1473 1473 1472 1472 1472 1472 1471 1470 1470 1469 1469 1468 1467 1467 1466 1465 1465 1464 1464 1464 1463 1463 1462 1462 1462 1461 1460 1459 1459 1459 1458 1457 1457 1456 1455 1454 1453 1452 1452 1450
1471 1471 1471 1471 1470 1470 1470 1470 1469 1469 1468 1468 1467 1467 1466 1465 1465 1464 1463 1462 1462 1461 1461 1460 1460 1460 1459 1459 1458 1457 1456 1456 1455 1454 1453 1453 1452 1451 1451 1450 1449 1448 1447
1469 1469 1468 1468 1468 1468 1467 1467 1467 1466 1466 1465 1465 1464 1464 1463 1462 1461 1461 1460 1459 1459 1458 1458 1457 1457 1456 1456 1455 1454 1453 1453 1452 1451 1450 1449 1448 1448 1447 1446 1446 1445 1444
1467 1467 1466 1466 1465 1465 1465 1464 1464 1464 1463 1463 1462 1461 1461 1461 1460 1459 1459 1458 1457 1456 1456 1455 1455 1454 1453 1453 1452 1451 1451 1449 1448 1447 1446 1446 1445 1445 1444 1443 1442 1442 1441
1464 1464 1464 1464 1463 1463 1463 1462 1462 1461 1461 1460 1460 1459 1459 1458 1458 1457 1456 1456 1455 1454 1453 1453 1452 1452 1451 1450 1449 1448 1448 1447 1445 1444 1444 1443 1443 1442 1441 1440 1439 1438 1437
1462 1462 1462 1461 1461 1461 1460 1460 1459 1459 1459 1458 1457 1457 1457 1456 1456 1455 1454 1453 1453 1452 1451 1451 1450 1449 1448 1447 1446 1445 1445 1444 1443 1442 1441 1440 1440 1439 1438 1437 1436 1435 1434
1459 1459 1459 1459 1459 1458 1458 1458 1458 1457 1456 1456 1455 1455 1454 1454 1454 1453 1452 1451 1451 1450 1449 1448 1447 1447 1446 1445 1444 1443 1442 1441 1440 1439 1438 1438 1437 1436 1435 1434 1433 1432 1430
1457 1457 1457 1457 1456 1456 1456 1455 1455 1455 1454 1453 1453 1453 1452 1452 1451 1450 1450 1449 1448 1448 1446 1445 1445 1444 1444 1443 1442 1441 1440 1439 1438 1437 1436 1435 1434 1433 1432 1431 1430 1428 1427
1454 1454 1454 1454 1453 1453 1453 1453 1452 1452 1451 1450 1450 1450 1450 1449 1449 1448 1447 1447 1445 1444 1444 1443 1442 1442 1441 1440 1439 1438 1437 1436 1435 1434 1433 1433 1432 1430 1429 1428 1427 1426 1424
1452 1451 1451 1451 1450 1450 1450 1450 1450 1449 1449 1448 1448 1447 1447 1446 1446 1445 1444 1444 1443 1442 1441 1441 1440 1439 1438 1438 1437 1436 1435 1434 1433 1432 1431 1430 1429 1428 1426 1425 1424 1423 1422
1449 1448 1448 1448 1448 1447 1447 1446 1446 1446 1446 1445 1445 1444 1444 1443 1442 1442 1441 1441 1440 1440 1439 1438 1437 1437 1436 1435 1434 1433 1432 1431 1430 1429 1428 1427 1426 1425 1423 1422 1421 1420 1418
1446 1446 1445 1445 1444 1444 1444 1443 1443 1443 1443 1442 1442 1442 1441 1440 1440 1439 1439 1438 1438 1437 1437 1436 1435 1434 1433 1432 1431 1430 1429 1428 1427 1426 1425 1424 1423 1421 1420 1419 1418 1416 1415
1444 1443 1442 1442 1441 1440 1440 1440 1440 1440 1440 1440 1439 1439 1439 1438 1437 1437 1436 1436 1436 1435 1434 1433 1432 1431 1430 1429 1428 1427 1426 1425 1424 1423 1422 1421 1419 1418 1417 1416 1414 1413 1412
1441 1441 1440 1439 1439 1438 1438 1437 1437 1437 1437 1437 1437 1436 1436 1435 1435 1435 1434 1434 1433 1433 1432 1430 1429 1428 1428 1427 1426 1425 1423 1422 1421 1420 1419 1418 1416 1415 1414 1412 1411 1410 1408
1439 1439 1438 1437 1437 1437 1436 1435 1435 1435 1434 1434 1434 1434 1434 1433 1433 1432 1432 1431 1431 1430 1429 1428 1427 1426 1425 1424 1423 1422 1421 1420 1418 1417 1416 1415 1413 1412 1411 1409 1408 1407 1406
1437 1436 1436 1435 1435 1435 1434 1434 1434 1433 1433 1433 1432 1432 1431 1431 1430 1430 1430 1429 1428 1427 1426 1425 1424 1423 1422 1421 1420 1418 1417 1416 1415 1414 1413 1412 1410 1409 1408 1406 1405 1404 1403
1435 1434 1434 1434 1433 1433 1432 1432 1432 1431 1431 1430 1430 1429 1428 1428 1428 1427 1427 1426 1426 1425 1424 1423 1421 1420 1419 1417 1416 1415 1414 1413 1412 1411 1410 1409 1407 1406 1405 1404 1403 1401 1400